Back to catalog

DELTA 4 DEB

LostHEO
NORAD 40649·DEBRIS·🇺🇸 United States

Launched Mar 25, 2015 from Cape Canaveral Space Force Station

Loading…

Next Passes (next 24 hours)

TLE

StaleSource: Space-Track

Epoch: Dec 14, 2025, 12:55 UTC

1 40649U 15013F   25348.53860298  .00000036  00000-0  00000-0 0  9995
2 40649  52.1718 194.2023 5581562 169.2273 211.1710  3.87530405  4396

Track DELTA 4 DEB in real time with AllMySat

Download on the App Store